Location: ??
(35.5653°N, 139.6194°E)
Time: 13:06:36
(UTC+00:00)

Cosmos 1500 Rocket - Pass Details

Date: 20 November 2019
Orbit: 602 x 632 km, 82.5° (Epoch: 05 December)

Event Time Altitude Azimuth Distance (km) Brightness Sun altitude
Rises 20:15:28 0° 193° (SSW) 2,908 7.0 -13.6°
Reaches altitude 10° 20:17:43 10° 197° (SSW) 2,003 6.2 -13.2°
Maximum altitude 20:22:06 61° 278° (W) 713 3.6 -12.3°
Drops below altitude 10° 20:26:31 10° 359° (N) 2,006 6.0 -11.5°
Sets 20:28:47 0° 3° (N) 2,912 6.9 -11.0°
